CW9688 Weather Reports


time (UTC)temp
F
wind
direction
speed
knots
gust
knots
rain 1hr
in
rain 24hr
in
rain mn
in
humidity
%
barometer
mb
20260901185306 85 149 6.1 12.2 0.00 0.08 0.00 37 1013.3
20260901184805 84 119 5.2 10.4 0.00 0.08 0.00 37 1013.3
20260901183304 83 117 6.1 10.4 0.00 0.08 0.00 38 1013.3
20260901182804 84 130 2.6 12.2 0.00 0.08 0.00 39 1013.3
20260901181304 82 161 5.2 7.0 0.00 0.08 0.00 36 1013.3
20260901180804 81 148 5.2 10.4 0.00 0.08 0.00 40 1013.3
20260901175805 82 132 4.3 7.0 0.00 0.08 0.00 44 1013.3
20260901174305 81 99 2.6 5.2 0.00 0.08 0.00 47 1013.3
20260901173804 81 100 5.2 7.8 0.00 0.08 0.00 48 1013.3
20260901173304 79 149 5.2 10.4 0.00 0.08 0.00 48 1013.3
20260901172804 79 134 3.5 7.8 0.00 0.08 0.00 50 1013.3
20260901172305 79 175 4.3 8.7 0.00 0.08 0.00 49 1013.3
20260901170804 77 201 2.6 6.1 0.00 0.08 0.00 51 1013.3
20260901163304 74 160 4.3 7.0 0.00 0.08 0.00 62 1013.3
20260901162306 72 112 4.3 7.0 0.00 0.08 0.00 64 1013.3
20260901161804 72 169 4.3 8.7 0.00 0.08 0.00 70 1013.3
20260901160804 68 174 1.7 2.6 0.00 0.08 0.00 73 1013.3
20260901155306 67 179 0.0 2.6 0.00 0.08 0.00 74 1013.3
20260901154805 67 179 2.6 4.3 0.00 0.08 0.00 74 1013.3
20260901153804 68 170 3.5 4.3 0.00 0.08 0.00 75 1013.3
20260901153304 67 166 0.9 2.6 0.00 0.08 0.00 75 1013.3
20260901151804 67 32 0.0 0.0 0.00 0.08 0.00 76 1013.3
20260901151304 66 253 0.0 0.9 0.00 0.08 0.00 76 1013.3
20260901150804 66 0 0.0 0.0 0.00 0.08 0.00 76 1013.3
20260901145306 65 304 0.9 4.3 0.00 0.08 0.00 79 1013.3
20260901144305 65 226 0.0 1.7 0.00 0.08 0.00 80 1013.3
20260901143305 65 201 0.9 2.6 0.00 0.08 0.00 80 1013.3
20260901142306 64 232 0.9 2.6 0.00 0.08 0.00 81 1013.3
20260901141805 64 254 0.0 1.7 0.00 0.08 0.00 81 1013.3
20260901141305 64 198 1.7 2.6 0.00 0.08 0.00 81 1013.3
20260901135305 63 176 0.0 0.0 0.00 0.08 0.00 83 1013.3
20260901134804 63 176 0.0 1.7 0.00 0.08 0.00 83 1013.3
20260901133304 62 188 1.7 4.3 0.00 0.08 0.00 85 1013.3
20260901131304 61 169 0.9 4.3 0.00 0.08 0.00 86 1013.3
20260901125804 61 283 0.0 1.7 0.00 0.08 0.00 86 1013.3
20260901124804 60 207 0.0 0.0 0.00 0.08 0.00 86 1013.3
20260901123804 60 207 0.0 0.0 0.00 0.08 0.00 86 1013.3
20260901123304 60 207 0.0 0.0 0.00 0.08 0.00 86 1013.3
20260901122804 61 207 0.0 0.9 0.00 0.08 0.00 85 1013.3
20260901114804 62 227 0.9 4.3 0.00 0.08 0.00 82 1014.3
20260901113804 62 197 1.7 2.6 0.00 0.08 0.00 83 1014.3
20260901111804 62 180 2.6 5.2 0.00 0.08 0.00 84 1014.3
20260901111304 62 190 2.6 5.2 0.00 0.08 0.00 85 1014.3
20260901105305 62 186 0.9 2.6 0.00 0.08 0.00 86 1014.3
20260901103305 62 181 1.7 2.6 0.00 0.08 0.00 88 1014.3
20260901102805 62 171 1.7 4.3 0.00 0.08 0.00 88 1014.3
20260901101304 62 173 1.7 4.3 0.00 0.08 0.00 89 1014.3
20260901100304 61 167 1.7 2.6 0.00 0.08 0.00 89 1014.3
20260901095804 61 174 0.9 2.6 0.00 0.08 0.00 89 1014.3
20260901093304 61 202 0.0 0.0 0.00 0.08 0.00 88 1014.3
20260901092305 62 202 0.0 0.0 0.00 0.08 0.00 87 1014.3
20260901091804 62 202 0.0 0.9 0.00 0.08 0.00 87 1014.3
20260901091304 62 202 0.0 0.9 0.00 0.08 0.00 86 1014.3
20260901090804 62 202 0.0 0.0 0.00 0.08 0.00 86 1014.3
20260901090304 63 202 0.0 1.7 0.00 0.08 0.00 85 1014.3
20260901084804 63 210 0.9 2.6 0.00 0.08 0.00 87 1014.3
20260901084304 63 249 0.9 1.7 0.00 0.08 0.00 87 1014.3
20260901083804 62 273 1.7 4.3 0.00 0.08 0.00 87 1014.3
20260901082804 63 63 0.0 0.0 0.00 0.08 0.00 86 1014.3
20260901081304 63 63 0.0 0.9 0.00 0.08 0.00 86 1014.3
20260901080804 63 63 0.0 0.9 0.00 0.08 0.00 86 1014.3
20260901080304 63 63 0.0 0.9 0.00 0.08 0.00 86 1014.3
20260901075307 63 63 0.0 1.7 0.00 0.08 0.00 85 1014.3
20260901074304 63 63 0.0 0.0 0.00 0.08 0.00 85 1014.3
20260901073804 63 63 0.0 0.9 0.00 0.08 0.00 85 1014.3
20260901072309 64 63 1.7 2.6 0.00 0.08 0.00 83 1014.3
20260901071304 64 206 1.7 2.6 0.00 0.08 0.00 84 1014.3
20260901070804 64 202 1.7 2.6 0.00 0.08 0.00 84 1014.3
20260901065804 64 116 0.0 1.7 0.00 0.08 0.00 84 1014.3
20260901064804 64 113 0.0 1.7 0.00 0.08 0.00 83 1014.3
20260901064304 64 111 1.7 4.3 0.00 0.08 0.00 83 1014.3
20260901063804 64 111 1.7 2.6 0.00 0.08 0.00 83 1014.3
20260901062309 64 171 3.5 6.1 0.00 0.08 0.00 82 1014.3
20260901061804 64 169 4.3 6.1 0.00 0.08 0.00 81 1014.3
20260901061304 63 209 4.3 10.4 0.00 0.08 0.00 81 1014.3
20260901060304 63 173 2.6 4.3 0.00 0.08 0.00 82 1014.3
20260901055804 63 211 1.7 2.6 0.00 0.08 0.08 82 1014.3
20260901054803 63 259 0.9 1.7 0.00 0.08 0.08 82 1014.3
20260901054304 63 259 0.0 1.7 0.00 0.08 0.08 81 1014.3
20260901053804 63 259 0.0 1.7 0.00 0.08 0.08 81 1014.3
20260901053304 63 259 0.9 2.6 0.00 0.08 0.08 82 1014.3
20260901052804 63 259 0.0 1.7 0.00 0.08 0.08 81 1014.3
20260901051804 63 259 1.7 2.6 0.00 0.08 0.08 81 1014.3
20260901051304 63 250 0.9 2.6 0.00 0.08 0.08 81 1014.3
20260901050804 63 263 1.7 4.3 0.00 0.08 0.08 81 1014.3
20260901050304 63 302 0.9 4.3 0.00 0.08 0.08 80 1014.3
20260901045306 63 270 2.6 5.2 0.00 0.08 0.08 79 1014.3
20260901044304 64 311 2.6 6.1 0.00 0.08 0.08 77 1014.3
20260901043804 64 309 1.7 4.3 0.00 0.08 0.08 77 1014.3
20260901042804 65 248 1.7 4.3 0.00 0.08 0.08 74 1014.3
20260901040804 64 188 2.6 6.1 0.01 0.08 0.08 77 1014.3
20260901035803 64 27 3.5 6.1 0.02 0.08 0.08 81 1014.3
20260901035305 63 29 1.7 2.6 0.02 0.08 0.08 82 1014.3
20260901034804 63 353 1.7 4.3 0.02 0.08 0.08 83 1014.3
20260901033804 63 288 2.6 5.2 0.02 0.08 0.08 81 1014.3
20260901032803 63 245 5.2 8.7 0.02 0.08 0.08 81 1014.3
20260901031805 64 257 4.3 7.0 0.01 0.07 0.07 79 1014.3
20260901031304 64 238 3.5 6.1 0.01 0.07 0.07 80 1014.3
20260901024804 69 218 7.0 13.0 0.00 0.06 0.06 64 1014.3
20260901024304 69 227 6.1 10.4 0.00 0.06 0.06 67 1014.3
20260901023303 68 225 3.5 8.7 0.00 0.06 0.06 69 1014.3
20260901022306 67 230 2.6 5.2 0.00 0.06 0.06 75 1014.3
20260901021303 67 0 1.7 2.6 0.01 0.06 0.06 73 1014.3
20260901020804 67 17 1.7 2.6 0.03 0.06 0.06 72 1014.3
20260901015803 67 353 2.6 8.7 0.06 0.06 0.06 73 1014.3
20260901014804 66 326 5.2 8.7 0.06 0.06 0.06 76 1014.3
20260901012804 64 321 0.9 2.6 0.06 0.06 0.06 82 1014.3
20260901011304 67 282 5.2 13.0 0.05 0.05 0.05 69 1014.3
20260901010304 73 296 4.3 20.0 0.01 0.01 0.01 54 1013.5
20260901005805 78 260 6.1 18.2 0.00 0.00 0.00 42 1013.5
20260901002803 82 90 3.5 10.4 0.00 0.00 0.00 31 1013.5
20260901002305 82 93 3.5 7.8 0.00 0.00 0.00 31 1013.5
20260901001304 82 80 4.3 11.3 0.00 0.00 0.00 30 1013.5
20260831234804 83 118 4.3 7.0 0.00 0.00 0.00 29 1013.5
20260831233804 84 124 4.3 7.0 0.00 0.00 0.00 29 1013.5
20260831231804 86 146 6.1 10.4 0.00 0.00 0.00 27 1013.5
20260831230303 84 112 3.5 7.8 0.00 0.00 0.00 27 1013.5
20260831225306 86 126 4.3 7.8 0.00 0.00 0.00 28 1013.5
20260831224804 85 156 1.7 10.4 0.00 0.00 0.00 31 1013.5
20260831223304 84 102 6.1 10.4 0.00 0.00 0.00 29 1013.5
20260831222306 84 79 6.1 11.3 0.00 0.00 0.00 29 1013.5
20260831220804 84 42 2.6 7.8 0.00 0.00 0.00 31 1013.5
20260831215804 83 147 1.7 5.2 0.00 0.00 0.00 30 1013.5
20260831215306 83 46 3.5 6.1 0.00 0.00 0.00 30 1013.5
20260831213804 82 35 4.3 8.7 0.00 0.00 0.00 33 1013.5
20260831213304 82 37 2.6 5.2 0.00 0.00 0.00 31 1013.5
20260831212306 82 59 1.7 6.1 0.00 0.00 0.00 32 1013.5
20260831211304 82 107 2.6 5.2 0.00 0.00 0.00 34 1013.5
20260831210804 82 55 3.5 6.1 0.00 0.00 0.00 34 1013.5
20260831210304 82 50 3.5 6.1 0.00 0.00 0.00 37 1013.5
20260831205803 81 59 3.5 7.0 0.00 0.00 0.00 35 1013.5
20260831205305 81 37 3.5 5.2 0.00 0.00 0.00 36 1013.5
20260831204804 81 44 3.5 5.2 0.00 0.00 0.00 34 1013.5
20260831201804 81 125 2.6 6.1 0.00 0.02 0.00 34 1013.5
20260831200303 81 75 2.6 6.1 0.00 0.02 0.00 35 1013.5
20260831195804 81 131 2.6 6.1 0.00 0.02 0.00 34 1013.5
20260831195306 81 59 1.7 5.2 0.00 0.02 0.00 36 1013.5
20260831194804 81 88 0.9 4.3 0.00 0.02 0.00 36 1013.5
20260831193803 80 140 0.9 2.6 0.00 0.02 0.00 33 1013.5
20260831192803 80 142 1.7 4.3 0.00 0.02 0.00 36 1013.5
20260831191304 79 189 0.0 2.6 0.00 0.02 0.00 36 1013.5
20260831185804 79 100 1.7 5.2 0.00 0.02 0.00 37 1013.5